sat.trackr.live / text

‹ back to catalog

HULIANWANG DIGUI-132

NORAD 67240 · 2025-311E

PAYLOAD ACTIVE UNKNOWN

§ Identity

Operator
Country
PRC
Launch date
2025-12-25
Launch site
WSC
Launch vehicle
Mass (kg)
RCS (m²)

External: N2YO · Heavens-Above · Gunter

§ Orbital elements

Epoch: 2026-09-20T22:22:13.802880Z

Period
108.33 min
Inclination
50.0048°
Eccentricity
0.0000167
Mean motion
13.29327676 rev/d
Perigee alt
1,149.2 km
Apogee alt
1,149.4 km
Semi-major
7,527.4 km
B*
4.1449e-5
RAAN
132.5007°
Arg perigee
338.6303°
Mean anomaly
21.4562°
Rev number
3,607

§ Raw data

HULIANWANG DIGUI-1321 67240U 25311E   26263.93210420 -.00000105  00000+0  41449-4 0  99932 67240  50.0048 132.5007 0000167 338.6303  21.4562 13.29327676 36078

JSON: /api/v1/satellites/67240 · /tle

For live sub-satellite position, see the globe view (requires WebGL).

§ Visibility from observer

Set your observer location to see the next 7 days of passes ≥ 10°. The values pass through the URL so the page stays shareable.

No JS? Fill the form by hand. The geolocation button needs JavaScript.